Theta_e
298 298 299 299 299 299 300 300 300 300 300 300 300 300 300 300 300 300 300 300 300 300 299 299 298 299 300 301 302 304 305 306 304 303 302 302 306 308 307 307 303 300 301 303 305 305 308 311 311 312 311 310 308 307 309 311 313 313 319 329 330 329 330 329 329 327 324 323 320 320 323 325 326 326 327 326 325 325 323 322 324 326 324 325 328 329 331 333
298 299 299 299 299 299 299 300 300 300 300 300 300 300 300 300 300 300 300 300 300 300 299 299 299 300 302 303 303 303 305 305 304 303 302 302 305 308 307 306 304 302 301 304 307 306 308 310 311 312 311 310 309 308 309 311 312 314 321 326 327 329 326 324 323 319 318 319 320 320 321 322 322 323 324 319 316 320 318 315 317 316 316 319 321 323 326 329
299 299 299 299 299 299 299 299 299 299 300 299 299 300 300 300 300 300 300 300 301 301 300 301 301 302 303 304 304 303 304 306 304 302 302 302 304 307 307 306 305 302 301 305 307 307 308 309 310 311 311 311 310 310 309 310 312 313 319 322 324 327 322 318 318 317 318 320 320 319 319 319 319 320 321 316 312 314 313 312 313 312 312 314 316 319 323 326
299 299 299 299 299 299 299 299 299 299 299 300 300 300 300 300 300 300 300 300 301 301 301 302 303 303 304 303 304 304 304 306 304 302 302 302 303 306 306 304 304 303 302 305 307 307 308 309 310 310 311 311 310 310 309 309 312 312 316 321 322 323 321 318 317 318 319 320 319 318 317 315 315 317 318 317 314 311 311 311 311 310 310 311 314 318 322 325
299 299 299 299 299 299 299 299 299 299 299 299 299 300 300 300 300 299 299 300 301 302 302 303 303 303 303 302 303 305 306 307 304 301 302 302 303 306 305 304 304 305 304 305 307 308 308 309 310 311 311 311 309 310 310 309 310 312 314 318 320 320 321 319 317 318 318 318 317 316 316 314 313 313 313 314 313 311 311 310 309 310 310 310 313 317 321 323
299 299 299 299 299 299 299 299 299 299 299 299 299 299 300 300 300 299 300 300 300 302 302 303 303 303 303 302 303 305 306 306 304 302 303 303 303 305 304 303 304 306 305 305 307 308 308 309 311 311 310 310 310 310 310 309 309 311 312 314 317 319 319 319 318 317 316 315 314 314 313 312 311 310 310 310 310 310 310 309 308 309 310 313 316 318 319 318
299 299 299 299 299 299 299 299 299 299 299 299 299 299 299 300 300 300 300 300 300 301 302 303 303 303 304 302 302 304 303 303 303 303 303 303 303 304 303 303 304 305 305 306 307 307 308 309 311 311 310 310 310 310 310 309 308 310 312 313 314 316 318 319 316 314 313 312 311 311 310 310 310 309 309 308 308 308 308 307 308 309 312 316 317 315 314 313
299 299 299 299 299 299 299 299 299 299 299 299 299 299 300 300 300 300 300 300 301 301 302 303 303 304 304 303 302 303 303 303 303 303 304 304 304 304 304 304 304 304 304 305 306 307 308 309 310 311 311 311 310 309 309 308 308 309 310 312 313 315 319 318 314 312 311 310 309 309 309 309 308 308 308 308 307 307 307 306 306 309 313 314 312 311 311 311
299 299 299 299 299 299 299 299 299 300 299 299 300 299 300 300 300 300 300 300 301 302 302 302 303 304 304 303 302 303 303 303 303 304 304 304 304 304 304 305 305 305 304 304 305 306 307 309 310 310 311 312 310 311 310 307 309 309 309 312 313 315 317 315 312 311 310 309 309 308 307 308 308 308 307 306 307 306 306 306 305 307 309 308 308 308 309 309
298 299 299 299 299 299 299 299 299 299 300 300 300 300 300 300 300 300 300 301 302 302 302 302 303 304 304 303 302 303 303 303 303 304 304 304 304 304 304 305 305 305 305 304 304 305 305 307 309 309 310 310 310 312 310 308 309 309 310 313 313 313 314 312 310 310 309 309 309 307 306 306 307 308 307 306 305 305 305 306 305 304 304 304 305 305 306 306
298 298 299 299 299 299 299 299 299 299 299 300 300 300 300 300 300 300 300 301 301 302 302 302 303 303 303 302 302 303 303 303 304 304 304 305 304 305 304 305 305 305 305 305 304 304 304 306 309 310 310 311 311 312 310 310 310 310 312 312 312 311 311 310 309 309 308 308 308 307 306 305 306 307 307 305 304 304 303 303 303 302 301 302 302 303 304 304
297 297 298 298 299 299 299 299 299 299 299 299 299 300 300 300 300 300 301 301 301 302 302 302 303 302 302 302 302 303 303 303 304 304 305 305 305 305 305 305 305 305 305 305 305 304 304 307 309 309 310 311 313 311 310 312 311 311 313 312 312 312 312 312 311 310 309 309 310 310 309 306 306 306 305 304 304 303 302 302 302 301 301 301 301 301 302 302
297 297 297 297 298 298 298 299 299 299 300 300 299 300 300 299 300 300 301 302 301 301 302 302 303 303 302 302 302 303 303 303 304 305 305 305 306 306 305 305 305 305 306 305 305 305 306 308 308 308 309 311 313 312 311 312 312 313 313 313 313 313 313 313 312 311 310 311 310 311 311 306 305 305 304 304 304 302 302 301 301 301 300 300 300 300 300 301
297 297 297 297 298 298 298 299 299 299 300 300 300 300 300 299 300 301 301 302 302 301 302 303 303 303 302 302 303 303 303 304 305 305 305 305 306 306 306 305 305 306 306 306 305 306 307 308 308 308 309 310 312 313 313 314 313 314 314 316 316 315 313 311 311 310 310 310 309 310 309 306 305 304 303 303 303 302 302 301 301 300 300 299 299 299 299 299
297 297 297 297 298 298 298 299 299 299 299 299 300 300 299 299 300 301 301 302 301 301 303 303 303 304 303 302 303 304 304 305 305 305 305 305 306 306 306 306 306 306 306 305 305 306 307 307 308 309 310 311 312 314 317 317 316 316 316 318 318 314 312 309 308 309 309 308 309 310 308 306 305 304 303 302 302 302 301 301 301 300 300 299 299 299 299 300
298 297 298 298 298 298 298 298 298 298 299 299 299 300 299 299 300 300 301 301 301 301 302 303 303 304 303 302 303 304 304 304 304 305 305 305 306 306 306 306 306 306 306 305 305 307 307 308 309 309 310 312 313 314 316 317 317 318 318 317 316 314 311 309 308 308 308 308 308 309 307 305 305 304 304 302 302 301 301 301 301 300 300 299 299 298 298 299
298 297 298 298 298 298 298 298 298 298 299 299 299 300 300 300 299 299 300 301 301 302 301 302 302 303 303 302 303 303 303 303 304 305 305 306 306 306 307 306 307 307 306 306 306 306 308 308 309 309 309 312 313 312 315 317 316 316 316 314 313 312 310 309 308 307 307 307 307 306 306 305 304 304 304 303 302 301 301 301 300 300 299 299 298 298 298 297
297 298 297 298 298 298 298 298 298 299 299 299 299 300 301 301 300 299 299 300 301 301 302 301 301 303 303 302 302 302 303 303 304 305 306 307 306 306 307 306 307 307 306 307 306 306 308 307 308 311 311 311 311 312 315 317 315 313 312 311 310 310 309 308 308 307 306 306 306 306 305 305 304 304 304 303 302 301 301 300 300 300 299 299 298 297 297 297
297 297 297 298 298 298 298 298 299 299 299 299 300 300 301 301 301 299 298 299 300 300 301 300 300 301 302 301 301 302 303 303 304 305 306 307 307 306 306 306 307 306 306 308 307 307 307 307 307 310 310 309 309 310 312 313 313 311 311 310 309 309 308 308 307 307 306 306 306 306 305 305 304 304 303 302 302 301 300 300 299 299 298 298 298 297 297 297
297 297 297 298 298 299 298 298 299 299 299 300 300 300 301 301 302 302 299 298 298 299 300 299 299 300 300 300 301 303 303 304 304 305 305 306 307 306 306 306 305 306 307 309 308 306 307 309 308 307 306 307 307 308 310 310 309 308 308 309 308 307 307 306 306 306 306 306 305 305 304 304 304 304 303 302 301 300 300 299 299 298 298 297 297 297 296 296
298 298 298 298 298 299 299 298 299 299 300 300 300 301 300 300 301 303 302 299 297 299 300 299 300 300 300 301 301 302 303 304 304 304 304 305 306 306 305 305 305 305 306 307 307 306 307 309 307 305 305 306 306 308 309 308 307 307 308 307 307 307 306 305 305 305 305 305 304 303 303 303 303 303 302 301 301 300 300 299 298 297 297 296 296 296 295 295
297 298 298 298 298 299 299 298 299 299 299 300 300 300 300 300 301 302 303 302 298 298 300 300 300 300 301 301 301 302 301 302 303 303 304 304 305 306 305 304 305 304 304 305 307 307 307 307 305 303 304 306 308 308 307 307 307 307 307 307 307 306 306 305 305 305 305 304 303 303 303 302 302 302 302 301 300 300 299 298 298 297 297 296 296 295 295 295
297 298 298 298 298 299 299 298 298 299 299 300 300 300 300 300 301 301 303 302 299 298 299 300 300 300 301 301 301 302 301 301 301 302 302 303 304 305 305 304 305 304 304 305 306 306 306 305 303 303 306 308 308 307 306 306 307 308 307 307 307 306 306 306 305 304 304 304 303 303 303 303 302 301 301 301 300 299 298 298 297 296 296 295 295 294 294 294
297 297 298 298 298 299 300 299 298 299 299 299 299 300 300 301 301 302 301 301 298 297 299 299 299 299 300 300 301 302 302 301 300 301 302 302 303 305 305 304 305 305 304 304 304 304 304 303 301 305 308 308 307 307 307 306 306 308 307 307 307 306 306 305 304 304 304 304 304 304 304 303 303 301 300 300 299 298 298 297 297 296 295 294 294 293 294 294
297 297 298 298 298 298 300 299 298 298 299 299 299 300 300 301 302 302 302 302 299 297 299 299 299 300 299 300 301 301 301 301 300 300 301 302 302 304 304 302 304 306 305 304 304 304 303 302 302 307 309 308 308 308 309 307 306 308 308 306 306 305 305 304 304 305 305 306 306 307 307 305 303 302 301 301 299 298 298 297 297 297 296 294 293 293 293 293
297 298 298 298 298 298 299 299 298 298 299 299 299 299 300 301 302 302 303 305 300 296 298 299 299 300 299 300 300 301 303 303 300 300 302 302 301 303 303 301 302 304 305 304 304 303 303 301 303 308 309 309 309 308 310 309 307 308 308 306 305 305 305 305 306 307 308 308 306 307 308 306 304 303 302 302 301 300 298 297 297 297 296 295 294 293 292 292
298 298 298 299 299 298 299 299 299 299 299 299 300 300 301 302 302 302 303 303 299 297 297 299 299 299 299 299 299 301 303 302 301 301 301 302 301 301 302 301 301 301 302 304 304 303 303 302 303 306 307 308 309 309 310 310 307 307 306 305 305 305 306 306 307 307 306 306 305 305 307 306 304 304 303 302 302 301 299 298 297 297 297 296 295 293 292 292
298 298 298 299 299 299 299 299 299 300 300 300 300 300 301 303 301 303 305 301 297 297 298 298 299 299 299 299 299 300 300 299 300 300 300 301 302 301 301 301 301 301 301 303 304 303 302 302 302 304 306 306 306 307 308 307 306 306 307 307 307 306 306 306 305 306 306 307 306 305 306 307 305 304 303 303 303 302 301 299 298 297 297 296 295 293 292 291
298 298 298 298 299 299 299 299 300 300 300 301 300 299 301 302 301 303 305 300 296 297 298 299 300 299 298 299 299 298 298 298 299 299 299 301 301 301 301 300 300 301 300 301 303 302 302 302 301 302 304 304 305 306 307 306 306 306 307 308 307 306 306 306 306 307 309 309 307 305 305 307 307 304 302 303 303 303 302 300 298 298 298 296 295 293 292 292
298 299 298 299 299 299 300 301 301 300 301 301 301 301 299 301 304 304 302 298 297 298 298 299 299 298 298 298 299 298 298 298 297 297 299 299 300 300 300 299 299 301 301 300 301 301 301 301 301 301 302 303 304 305 306 307 306 307 308 307 307 309 310 311 309 309 313 311 306 305 304 306 308 305 303 304 305 304 302 301 299 298 298 297 295 294 293 292
299 299 298 299 299 300 300 301 301 301 301 300 301 302 300 302 305 304 300 297 298 299 298 299 299 298 298 298 298 298 298 298 297 297 298 298 299 298 299 299 299 301 302 301 301 301 300 300 301 301 300 302 305 306 305 306 306 308 310 308 309 311 313 315 311 311 314 310 305 304 303 306 310 306 303 304 304 303 301 301 300 298 298 298 296 295 293 293
299 298 299 299 299 300 300 300 301 300 301 301 300 301 303 304 301 300 299 297 298 299 299 299 298 298 298 298 297 297 298 298 297 296 297 297 298 297 298 298 297 302 304 301 302 302 301 300 300 301 300 301 305 308 308 307 308 311 313 312 312 313 314 315 312 310 311 308 305 304 303 305 306 304 303 303 303 301 300 300 300 299 299 298 297 295 294 293
299 298 299 299 300 300 300 300 300 300 301 301 299 301 305 304 299 298 300 300 297 297 298 298 298 298 298 298 297 297 298 298 296 297 296 296 297 296 297 297 296 300 302 300 301 304 304 302 300 301 301 300 302 307 309 307 309 311 312 314 315 315 314 311 307 306 307 307 304 303 303 305 304 302 302 302 302 302 301 301 302 301 300 300 298 296 295 294
299 299 299 299 299 300 300 300 300 300 301 300 301 304 305 301 299 299 302 301 298 297 298 298 298 299 298 297 296 297 299 299 296 296 296 296 297 297 297 297 296 297 299 300 301 302 304 303 301 300 300 299 299 302 303 305 308 308 308 311 314 314 314 312 309 310 308 306 305 304 304 304 304 303 302 301 301 302 302 302 302 302 302 301 299 297 296 296
299 299 299 299 299 300 300 300 300 300 301 300 302 303 303 300 299 300 302 301 299 298 298 297 297 300 299 297 296 297 299 299 296 297 297 296 297 297 296 297 297 295 298 301 300 300 301 300 299 300 298 298 299 298 299 304 308 306 306 311 311 309 309 308 307 308 308 308 310 308 305 303 302 301 299 299 300 301 302 302 302 302 301 300 299 299 299 298
299 299 299 299 300 300 299 300 300 300 301 301 301 301 301 299 298 299 299 299 298 297 298 298 298 300 300 298 298 297 297 297 297 299 299 296 297 297 296 297 297 295 297 300 301 301 301 299 299 301 299 297 298 298 297 301 305 306 307 309 306 303 307 309 305 303 305 309 308 304 304 304 302 301 301 300 300 301 301 301 302 302 301 300 300 300 300 300
300 300 300 300 300 300 300 300 300 301 301 301 301 301 298 296 297 298 297 297 297 296 298 300 298 299 301 301 299 297 297 298 298 299 299 297 298 297 295 297 297 295 295 298 300 299 300 300 299 299 302 299 296 297 298 297 302 309 309 305 303 302 305 310 309 306 306 309 307 304 305 306 303 303 303 301 301 302 300 299 301 301 301 300 300 301 300 300
301 301 300 300 300 300 300 300 300 301 301 301 300 299 295 295 296 296 297 296 297 297 299 300 298 298 300 300 299 297 298 298 298 299 300 299 298 297 296 297 297 295 294 296 299 298 299 302 299 298 303 301 296 300 304 300 299 303 304 301 303 305 306 308 309 308 309 309 308 305 304 305 304 303 303 301 301 301 300 298 298 299 300 300 300 301 300 299
302 301 300 300 300 300 300 300 301 300 300 300 301 299 295 296 297 296 297 297 296 298 299 299 298 298 298 298 299 299 298 297 297 298 300 298 297 297 296 296 296 295 294 295 299 298 298 302 300 299 301 299 299 302 304 302 300 300 302 303 304 305 305 306 305 306 310 309 306 305 305 306 305 303 303 301 300 301 300 299 297 297 300 300 300 300 299 299
302 301 300 300 301 301 300 300 300 302 300 297 298 296 294 297 298 297 298 297 296 298 299 298 298 299 299 297 297 298 298 297 296 297 298 298 297 297 296 296 296 295 294 295 296 297 300 304 301 299 300 299 301 300 298 299 300 301 304 305 305 303 301 302 300 300 307 310 307 306 308 310 307 303 304 302 300 300 299 298 297 297 299 299 299 299 298 298
302 302 301 300 301 301 301 302 300 298 297 296 296 295 294 297 298 297 297 298 297 297 297 298 298 298 298 298 297 297 298 298 296 297 298 297 297 296 296 296 295 294 295 297 298 297 300 304 302 302 302 300 300 298 296 298 298 299 301 301 302 302 302 304 300 297 300 305 306 305 306 312 310 302 302 302 299 299 298 298 297 297 298 299 298 299 298 298
302 303 301 300 302 301 301 302 295 293 298 298 296 296 297 297 297 297 297 298 297 297 296 297 297 297 298 298 297 296 297 298 297 297 297 297 297 297 296 296 294 294 296 298 298 296 297 302 304 303 300 299 298 296 295 295 296 299 299 298 299 299 303 310 307 300 298 297 300 300 301 309 308 299 299 299 298 299 299 298 298 298 299 299 299 299 298 298
300 301 301 301 302 301 302 302 296 295 297 296 294 295 297 298 297 297 297 297 298 297 297 297 296 296 296 296 296 297 296 296 296 297 297 297 297 297 296 295 294 294 295 296 297 296 295 299 304 304 302 302 302 297 293 293 295 299 299 298 300 298 300 306 306 303 301 299 301 300 300 309 306 296 297 298 298 299 299 299 299 299 299 299 299 299 299 298
299 300 300 301 301 302 305 306 303 299 297 296 296 296 297 297 297 298 297 297 297 297 298 298 296 295 295 294 296 297 295 295 296 296 296 296 296 296 296 296 294 293 295 296 296 297 295 296 302 307 304 304 305 303 300 299 299 300 299 298 299 298 298 299 299 301 302 300 302 302 304 311 305 297 298 298 297 298 298 299 300 299 300 300 299 299 299 299
301 300 299 300 301 302 301 300 301 301 299 299 299 298 297 297 297 298 297 297 296 296 296 296 296 296 295 294 297 297 295 295 295 295 296 296 296 295 296 296 293 293 295 296 295 297 296 295 300 308 305 301 302 301 299 300 300 299 297 297 298 298 298 299 299 302 302 298 297 302 307 308 303 301 302 299 298 299 299 299 300 299 300 300 300 300 299 299
302 303 302 300 300 299 298 296 297 300 300 301 300 298 298 299 297 296 297 297 297 296 295 295 295 296 296 297 299 299 296 295 295 296 297 298 297 295 295 296 294 292 294 295 295 295 295 293 294 303 308 306 304 301 297 298 300 299 297 298 299 298 298 298 298 302 303 300 300 302 302 301 301 301 302 302 302 301 299 299 300 300 300 300 300 300 299 299
301 302 301 301 300 299 298 296 296 298 299 301 299 297 299 300 297 296 296 297 297 296 296 295 293 294 296 298 299 299 296 296 297 297 297 297 296 295 294 295 294 293 293 295 295 296 300 298 293 296 303 302 299 299 296 296 299 299 299 300 299 298 298 298 299 300 299 300 304 303 298 298 301 301 302 303 302 299 297 298 300 300 300 300 300 299 299 299
301 300 298 300 302 301 299 298 297 296 296 298 298 297 299 300 299 298 297 296 296 296 297 298 295 295 296 295 297 299 297 297 297 297 298 298 296 296 296 295 293 292 293 294 294 296 301 301 294 294 302 300 295 295 295 295 297 297 297 299 299 298 298 299 302 301 298 300 304 302 298 300 301 300 301 301 298 298 298 299 300 300 300 300 299 299 299 299
300 300 298 300 301 299 298 298 297 296 296 298 299 299 301 303 301 299 297 296 297 295 296 299 297 296 294 293 297 300 298 297 296 296 297 297 296 296 297 296 294 292 292 293 293 294 298 301 295 292 299 302 297 295 293 294 296 297 296 296 296 297 298 298 300 300 299 300 300 298 297 298 297 296 297 296 296 297 298 298 299 298 298 298 298 298 299 299
300 301 299 299 298 297 297 296 296 298 298 299 300 299 300 303 302 298 295 297 299 297 295 297 297 295 292 293 298 299 296 295 296 295 295 296 296 296 295 296 295 293 292 294 293 293 295 298 293 291 300 304 299 296 296 295 297 299 297 295 294 295 296 295 295 297 298 298 298 296 296 296 296 295 296 295 296 296 296 297 297 297 298 298 298 298 298 299
301 301 299 300 299 297 298 296 296 300 302 301 301 299 299 302 301 297 296 296 297 298 297 296 296 295 293 294 297 297 294 294 294 294 294 294 294 294 293 293 293 293 294 294 293 294 296 297 294 294 302 305 299 297 299 296 295 297 298 296 295 294 296 296 294 295 297 298 298 298 299 300 298 295 295 296 296 295 296 297 298 298 299 298 298 298 298 299
300 300 298 300 301 297 297 297 296 300 302 300 299 297 299 301 297 296 298 297 295 297 297 295 294 296 297 296 296 295 294 293 292 292 292 292 292 292 292 292 292 293 294 293 293 295 295 297 298 297 301 306 301 296 296 296 298 301 303 301 297 294 295 296 295 295 295 297 299 300 301 300 297 295 297 298 297 296 297 298 298 299 299 298 298 298 298 298
Wind_Speed
13 15 16 17 18 19 20 21 21 20 20 20 20 20 21 21 19 18 18 18 18 17 15 13 11 10 11 12 9 5 3 3 6 15 21 18 14 15 17 18 17 15 12 7 5 3 3 2 1 1 0 5 5 7 11 11 9 7 2 4 4 4 5 4 5 5 6 3 4 10 14 16 10 12 21 27 31 32 35 34 30 29 30 28 21 17 15 16
15 16 17 18 18 20 21 20 20 20 20 19 19 19 19 20 20 18 16 17 17 16 14 12 10 10 11 12 9 4 4 4 5 15 21 17 14 15 16 17 16 13 10 6 4 5 4 3 2 4 3 2 4 6 8 9 9 5 2 4 3 3 2 2 7 8 11 8 10 18 17 19 14 8 21 21 17 25 28 24 31 34 33 32 28 26 23 21
15 16 17 18 19 20 21 21 21 21 20 20 19 18 17 18 20 18 16 14 15 15 12 11 9 10 11 12 11 5 5 5 6 15 22 18 14 14 16 16 15 11 8 6 5 5 6 7 6 6 5 2 5 8 6 7 7 5 3 3 3 3 4 11 18 18 19 20 18 19 24 29 20 13 23 23 17 23 19 15 23 26 29 33 31 31 29 27
15 16 17 18 19 20 21 21 21 22 22 21 21 20 17 16 18 18 17 13 13 13 11 10 9 10 12 14 13 7 6 4 5 15 21 17 13 14 15 14 12 8 5 5 6 5 6 7 6 5 4 3 4 7 5 6 5 3 4 4 4 4 6 14 25 27 24 28 25 21 28 29 25 22 20 25 20 15 15 17 19 20 26 33 33 33 31 30
14 16 17 18 18 19 21 22 22 23 23 23 22 21 17 14 16 19 19 15 12 10 10 9 9 11 12 16 14 7 5 1 7 17 19 16 13 14 15 11 8 6 5 5 7 7 7 6 5 3 2 2 2 4 4 8 5 1 3 6 7 6 8 14 27 31 27 31 30 25 23 19 29 32 25 32 20 8 12 17 23 27 31 34 35 35 32 33
13 15 16 16 17 19 21 23 24 25 25 25 24 23 19 15 14 17 20 19 13 8 8 7 7 10 12 16 13 7 5 1 11 19 17 15 13 13 13 9 4 4 5 4 7 7 6 5 4 2 1 2 1 2 3 6 5 1 1 6 8 9 12 17 26 32 35 36 28 24 23 25 35 28 28 39 22 12 16 20 31 34 34 34 33 35 34 34
12 13 14 14 16 18 20 22 23 25 25 26 26 25 23 18 14 15 17 19 16 9 6 7 7 8 11 15 12 7 7 8 15 18 15 14 13 12 11 6 3 4 4 4 6 6 6 5 4 2 1 1 2 3 4 4 4 3 2 6 6 11 20 23 26 37 46 40 31 35 32 29 33 22 26 36 22 16 16 20 33 35 33 32 32 36 35 35
11 11 12 13 14 16 18 19 20 22 22 23 24 25 24 23 18 14 14 16 18 11 5 6 8 8 10 15 14 7 9 15 16 15 14 13 12 10 7 5 4 4 4 5 6 5 6 4 4 3 1 0 1 1 4 3 1 3 3 5 3 11 25 30 32 45 50 39 42 46 32 27 33 31 29 27 20 19 20 20 30 35 36 35 36 37 34 35
9 9 10 11 12 12 13 14 16 17 18 18 19 21 22 24 21 16 13 13 16 13 6 4 8 9 9 15 16 6 9 17 15 14 14 12 10 6 4 3 3 4 5 6 6 6 5 2 2 3 1 2 2 2 1 1 3 7 5 6 13 17 29 34 31 39 40 35 47 41 22 22 23 25 26 21 16 18 25 31 32 37 40 39 39 37 35 35
7 7 8 8 8 8 8 10 12 14 15 16 16 18 20 23 23 16 12 12 14 14 7 2 8 9 8 14 15 7 11 17 14 14 13 12 11 7 5 4 4 5 4 5 5 6 5 2 3 2 2 2 2 3 2 2 4 8 14 20 24 25 29 33 29 34 34 32 49 38 18 24 21 17 15 15 15 15 25 34 34 37 39 40 39 37 37 35
5 6 6 6 5 4 5 7 10 13 14 15 15 18 20 22 22 15 11 12 13 13 6 2 10 11 8 14 13 7 14 17 14 15 13 12 11 9 7 4 5 4 4 4 4 6 6 5 5 2 1 2 2 3 4 4 2 16 27 23 24 29 25 27 27 31 31 25 45 48 24 27 27 20 13 13 17 18 26 31 31 33 34 37 37 37 38 35
6 6 5 5 5 4 5 7 10 13 13 14 14 17 19 22 20 12 11 14 15 13 6 4 11 14 9 11 14 12 16 17 15 14 12 11 10 8 7 4 4 4 4 4 3 5 5 6 5 3 2 1 2 2 3 3 8 27 31 17 16 24 16 14 13 17 26 17 24 35 23 19 17 15 13 13 14 19 31 31 28 31 31 33 35 36 37 35
7 7 7 7 7 7 7 9 11 12 13 12 13 15 18 23 20 12 14 19 18 13 6 5 6 15 13 8 15 20 18 18 17 16 14 10 9 8 6 4 3 4 5 5 3 4 6 7 7 5 4 3 2 1 2 1 15 26 22 12 12 15 7 5 5 7 13 4 2 9 10 8 10 13 14 9 10 19 32 30 27 30 30 31 32 34 35 34
9 9 9 8 8 9 9 10 11 12 12 10 11 12 16 24 22 13 16 24 24 14 6 6 1 7 14 13 17 23 20 19 20 19 18 13 12 10 5 3 3 4 7 7 4 5 10 8 7 5 5 6 6 6 4 4 13 15 13 8 6 8 5 6 6 9 9 4 17 20 8 5 7 12 15 12 11 20 30 28 25 27 29 31 32 33 32 31
10 10 10 10 10 10 10 11 12 12 11 9 7 8 16 26 27 19 15 20 28 21 6 4 3 4 11 16 18 23 22 21 22 22 20 15 11 9 4 3 3 1 4 5 7 9 9 7 6 3 4 5 4 4 3 4 6 7 10 6 3 7 7 9 10 11 9 10 31 31 8 5 8 9 13 15 14 23 30 25 24 26 26 29 31 33 33 30
11 10 11 10 10 10 11 12 12 12 10 7 4 7 14 25 31 27 20 17 22 27 17 7 4 2 6 14 19 25 25 25 26 25 21 12 7 5 5 4 3 5 2 6 12 12 10 6 4 1 2 1 1 2 4 6 3 1 6 5 6 9 7 6 11 10 12 10 17 22 11 6 7 7 10 13 16 24 29 24 25 26 25 27 28 30 31 30
11 11 11 10 11 11 12 13 13 11 7 4 4 6 9 18 28 31 29 24 19 21 26 22 10 2 6 19 23 27 28 28 30 29 25 13 7 8 9 6 5 7 1 10 13 12 10 5 4 2 3 3 1 3 6 8 5 2 6 4 5 10 7 6 8 10 19 19 15 18 16 9 8 9 10 11 13 21 26 23 23 25 26 27 27 28 29 29
11 12 11 11 12 12 12 14 14 11 5 3 4 5 6 10 20 30 33 32 28 19 18 28 24 3 5 26 28 26 26 28 31 32 27 15 6 7 8 6 8 5 7 11 7 7 8 3 3 2 4 4 3 2 6 7 7 8 10 8 6 11 11 10 7 7 21 23 16 17 16 12 9 9 11 10 11 17 21 20 20 21 23 24 26 28 28 28
12 12 12 12 12 12 13 13 16 12 4 3 3 3 5 4 8 21 33 35 33 20 8 21 26 6 6 24 29 25 23 28 32 30 26 17 10 11 9 7 8 6 9 7 3 5 6 3 5 4 3 4 4 1 3 5 10 14 14 12 11 12 12 13 11 11 23 22 14 16 14 13 10 8 11 11 12 17 19 19 20 19 20 20 22 25 26 26
13 13 13 13 12 13 13 13 16 13 6 4 2 1 3 5 3 8 24 33 31 23 17 23 24 14 15 24 30 26 21 28 32 29 26 20 15 15 15 10 11 14 6 2 2 3 4 6 4 2 3 5 7 3 3 8 16 18 15 16 16 15 11 13 12 9 23 22 10 14 16 13 11 8 9 10 13 18 18 18 19 18 20 21 22 24 24 24
13 14 14 14 13 12 13 14 14 13 10 7 5 5 5 6 4 4 12 21 28 28 26 31 30 24 24 24 28 26 21 26 31 30 26 21 20 18 18 14 11 11 7 2 3 2 6 6 3 5 5 7 8 1 9 15 22 19 15 17 16 15 10 11 10 4 18 23 8 13 19 14 11 8 8 10 12 16 16 16 17 17 19 21 22 23 22 22
14 15 15 15 14 12 13 13 13 13 10 8 8 10 8 6 5 4 5 7 22 30 27 32 36 31 27 24 23 25 26 25 27 33 29 23 23 17 14 15 10 7 7 4 3 5 7 5 9 13 9 4 2 10 16 16 21 17 13 14 12 13 13 12 11 4 11 17 8 12 18 13 10 10 11 12 13 15 17 18 17 17 19 21 21 21 21 21
15 16 15 15 14 12 12 13 12 11 9 10 11 11 8 7 5 2 1 0 12 29 30 29 33 35 31 25 22 25 26 21 21 32 33 25 22 14 10 10 8 10 11 8 7 6 5 5 14 17 7 8 14 15 16 12 12 10 9 14 11 10 12 9 8 6 9 13 12 15 16 9 8 8 9 13 16 17 19 20 20 20 21 21 20 19 20 20
15 16 15 15 15 12 11 13 13 11 13 14 13 11 7 7 7 3 2 1 4 21 29 22 25 33 33 27 22 18 18 20 23 29 32 28 20 12 8 5 6 11 10 10 15 12 7 11 18 9 5 17 20 14 11 10 8 6 4 12 13 10 12 12 12 12 13 13 12 13 12 6 6 7 6 10 15 16 17 20 20 21 20 19 19 19 18 17
15 16 15 15 15 12 10 13 15 12 14 15 13 13 9 6 7 4 2 3 3 15 24 20 19 27 32 27 18 10 9 19 27 28 28 28 20 8 6 8 6 6 6 10 15 11 10 19 19 7 13 15 17 9 4 7 9 6 4 8 18 18 20 21 18 14 10 6 3 5 7 3 4 6 4 4 8 9 13 16 16 17 18 17 18 18 16 16
15 16 16 16 15 14 12 12 16 14 11 14 16 14 10 6 8 6 2 4 5 10 18 19 15 20 30 28 21 10 3 12 25 28 25 24 22 11 6 8 5 3 4 5 7 5 7 18 14 9 13 13 15 9 5 4 11 5 5 7 20 22 20 17 13 9 6 3 1 3 5 4 1 3 3 3 4 4 8 11 13 14 15 15 15 14 14 15
16 16 16 16 16 15 13 12 14 14 11 14 15 12 9 6 6 5 2 4 6 7 11 16 13 16 25 26 26 13 1 11 19 26 28 21 21 23 14 6 5 7 4 1 5 3 6 15 13 10 13 12 9 6 4 2 8 6 3 8 14 16 14 11 9 8 5 5 6 7 5 5 2 2 3 4 5 4 4 6 8 12 12 11 11 11 12 13
16 17 16 17 17 16 15 13 13 14 14 13 14 11 7 7 5 4 3 5 6 8 8 13 12 20 27 26 28 17 6 13 11 17 31 23 18 23 18 8 4 8 9 5 7 2 6 11 14 9 11 10 4 2 1 8 11 7 7 7 7 10 12 11 10 8 4 6 6 6 5 4 2 2 2 1 4 3 2 3 5 9 9 7 8 8 10 11
16 16 16 17 16 15 15 14 13 13 12 11 14 14 10 6 4 3 6 4 4 8 9 13 12 21 30 25 26 24 18 17 10 14 28 24 17 14 8 6 5 3 11 14 10 2 3 5 8 7 7 6 5 2 7 18 15 8 9 8 6 9 9 8 8 5 4 6 3 4 4 4 2 2 2 0 2 3 3 3 5 7 7 5 5 6 7 9
15 15 15 16 15 15 14 15 14 11 9 7 9 16 18 10 3 5 7 2 2 7 11 12 10 19 26 16 16 23 18 16 19 23 28 28 30 24 8 7 9 2 7 12 7 4 6 5 5 9 9 2 4 9 10 17 16 13 10 8 6 6 6 5 4 3 5 4 2 4 2 4 1 3 4 3 3 6 5 3 5 8 7 4 4 4 5 7
14 14 15 16 16 16 15 17 18 12 8 5 2 8 15 9 4 7 4 3 2 7 9 7 9 15 18 7 7 16 12 14 23 22 21 22 28 32 20 10 11 7 6 8 4 4 11 12 6 10 19 12 5 11 14 13 11 7 5 5 6 4 4 4 5 4 5 1 4 3 2 4 2 3 4 4 4 8 9 6 7 10 10 7 4 3 4 5
14 14 14 15 16 18 17 17 20 14 8 6 2 1 4 5 6 4 2 6 3 4 5 3 6 9 10 6 6 11 7 8 16 12 9 8 9 16 14 6 7 5 5 6 5 6 8 13 11 10 22 23 7 5 9 8 7 6 4 4 5 4 4 4 4 3 2 2 4 2 2 2 1 4 4 4 6 10 13 14 14 15 13 10 7 5 4 3
13 13 13 14 16 18 18 16 17 13 7 8 8 5 4 6 4 1 3 4 1 3 4 4 6 7 7 6 7 8 5 4 11 11 6 5 5 7 8 10 10 4 2 3 4 7 5 10 18 12 13 20 10 4 4 3 4 5 3 3 4 4 4 1 2 1 0 2 3 2 1 1 2 3 4 7 9 14 18 18 17 16 14 12 9 6 4 3
13 14 12 13 15 17 19 16 14 12 6 4 6 6 10 7 1 2 2 3 3 4 4 4 8 8 6 5 5 7 4 3 8 9 8 8 9 7 7 12 14 6 2 3 4 6 5 5 12 7 6 12 8 4 2 1 3 4 1 4 4 4 5 3 3 2 2 2 2 2 2 1 2 2 4 8 11 15 17 17 16 14 13 13 10 8 6 3
12 13 12 13 14 14 16 15 13 8 6 11 10 7 9 4 3 1 1 5 2 4 6 5 5 5 6 4 4 6 5 4 7 7 7 8 7 6 6 7 12 9 3 3 3 2 5 2 6 4 3 5 6 5 3 2 3 3 1 4 3 2 4 3 3 4 4 1 2 2 0 3 3 3 4 7 9 13 16 17 17 15 15 14 13 12 9 7
10 11 13 14 15 15 14 15 13 5 6 16 14 6 4 2 3 2 1 2 1 4 6 6 4 4 6 5 4 9 8 5 7 6 4 6 5 7 7 4 8 11 4 2 1 0 4 1 6 6 4 5 8 5 4 5 1 1 4 2 1 3 6 5 2 1 3 3 1 2 1 3 2 3 4 5 6 9 12 15 18 18 17 17 16 15 13 11
8 11 14 14 17 19 15 13 11 7 13 19 11 3 3 2 2 3 3 4 3 4 3 4 4 3 4 4 5 10 10 5 6 6 4 4 5 8 9 6 6 10 7 3 1 1 3 1 4 6 3 8 14 5 5 12 6 3 3 2 2 2 4 5 2 3 5 2 2 2 1 2 1 1 3 6 7 8 9 12 17 18 19 20 19 17 15 13
6 9 15 17 16 16 16 13 6 3 18 20 8 3 2 1 0 1 5 5 3 2 4 2 2 2 2 2 4 8 8 6 5 5 4 4 4 6 8 6 7 14 15 8 1 0 4 2 4 5 1 9 15 6 3 14 14 6 4 2 3 3 1 3 3 2 2 0 3 3 2 3 3 3 5 9 11 10 9 10 13 17 21 23 21 19 18 16
6 6 13 18 15 13 16 14 6 9 17 11 3 3 1 1 1 2 5 5 2 1 4 2 1 2 2 1 2 5 5 5 4 3 3 3 2 5 8 6 8 18 20 10 3 2 2 4 2 6 4 4 8 7 3 8 10 6 4 3 2 3 3 2 2 2 3 2 2 2 3 3 5 5 8 13 13 12 11 9 11 19 25 25 24 21 20 19
4 3 10 15 14 11 9 8 13 20 14 3 2 2 1 1 2 4 6 5 2 2 2 2 2 2 2 2 1 3 3 4 4 2 2 2 1 2 8 7 6 14 16 8 4 1 1 4 1 6 7 3 3 3 1 2 4 4 4 4 3 2 1 2 2 2 3 4 3 1 1 5 6 4 9 13 12 12 13 12 15 23 27 27 25 23 22 21
3 3 8 11 12 10 6 8 16 15 6 1 3 1 1 1 3 6 7 5 4 4 3 2 2 1 1 2 2 2 2 3 4 3 2 3 2 1 6 11 9 10 9 5 4 4 2 3 3 2 5 4 0 3 2 2 3 1 2 1 0 1 1 3 2 2 2 3 4 4 1 7 6 3 6 9 9 13 19 19 20 25 29 28 26 25 23 22
6 3 7 10 10 9 8 11 11 7 4 3 2 1 1 1 2 6 7 5 3 4 4 3 2 1 1 1 1 1 2 3 3 3 2 2 1 1 6 15 15 9 4 2 3 4 2 3 4 2 2 1 4 4 0 1 2 1 1 1 2 2 3 5 2 3 1 2 2 3 0 6 5 3 5 9 12 17 23 24 23 25 29 29 27 25 24 23
9 7 8 8 7 7 9 8 6 5 4 2 2 2 2 1 2 4 5 5 3 3 4 3 0 2 2 0 1 2 2 2 2 2 1 2 1 2 6 15 16 9 4 1 3 3 3 4 4 3 4 4 5 4 2 3 3 2 2 2 2 1 2 4 4 3 3 1 1 3 1 6 5 4 4 9 13 16 20 24 25 26 28 28 27 26 25 24
11 11 12 10 5 4 6 4 2 2 2 2 3 3 3 3 4 4 2 3 3 2 2 2 2 2 2 1 1 1 1 2 2 2 1 1 2 3 7 13 15 11 6 2 3 4 3 2 4 3 4 6 7 5 5 5 4 1 2 2 2 3 3 2 2 3 2 3 4 4 3 6 5 6 5 3 6 10 16 22 24 25 26 26 26 25 25 25
6 8 12 14 8 8 7 7 9 6 2 3 4 1 2 4 4 3 3 3 4 3 2 1 2 2 2 2 3 3 2 2 1 2 2 1 3 4 7 11 14 15 10 4 4 3 2 2 3 5 3 1 1 2 3 3 2 1 2 3 2 3 3 1 1 3 1 2 4 4 5 5 5 5 6 4 3 7 13 18 20 22 23 25 25 26 26 27
2 2 5 10 13 15 14 11 13 10 5 4 3 1 2 2 0 2 3 3 4 5 5 2 1 1 2 3 3 4 4 3 2 2 2 3 3 3 7 8 12 19 14 7 7 3 4 3 2 6 5 5 5 5 5 2 0 1 2 3 2 1 2 3 3 1 3 2 2 5 5 5 8 5 5 6 5 6 11 16 18 22 24 25 27 27 28 29
3 2 0 3 8 12 13 10 10 9 6 5 3 1 2 2 1 1 2 1 2 3 4 5 3 1 2 2 2 2 4 4 4 3 2 3 3 3 7 5 9 19 15 9 9 4 4 4 2 3 3 5 5 4 3 1 2 5 3 3 3 2 2 5 3 4 4 3 4 6 3 2 7 6 6 9 7 7 13 19 22 24 26 27 28 30 31 31
2 3 4 4 2 3 5 4 7 9 7 5 3 2 3 2 1 1 0 0 1 0 1 3 5 3 1 1 2 1 2 3 4 2 1 3 3 4 6 2 5 16 16 10 9 6 5 2 2 1 4 6 5 4 3 2 2 4 4 5 5 4 5 6 6 6 6 5 6 4 2 4 9 6 6 10 11 13 19 23 24 24 25 27 28 30 32 33
6 7 6 5 4 5 6 6 9 12 7 3 3 2 3 4 3 1 1 1 1 2 1 1 3 3 2 1 3 2 1 2 2 2 1 2 3 2 4 2 2 12 15 9 6 5 3 1 0 1 4 7 5 3 4 4 2 4 6 8 7 7 8 8 7 6 7 8 10 5 5 11 13 10 12 17 21 22 23 22 22 24 26 26 26 27 29 31
7 6 6 9 10 9 9 7 8 8 4 2 3 1 3 5 4 2 1 2 1 2 1 2 3 3 2 1 3 2 2 3 2 2 2 1 3 1 1 1 2 9 12 5 3 4 2 0 1 2 3 7 5 1 2 4 4 5 8 8 7 7 7 8 7 5 6 9 10 6 8 13 10 9 13 17 17 17 20 22 23 23 23 22 22 23 25 26
5 6 10 13 9 4 4 4 3 4 2 1 2 3 3 3 5 5 2 2 2 1 0 4 6 3 1 2 2 2 3 3 2 3 2 1 2 2 0 1 2 6 7 4 3 5 3 1 1 4 4 5 4 3 3 2 2 6 11 11 10 8 6 6 6 6 7 6 3 2 5 9 6 6 8 9 8 10 16 19 20 19 17 17 19 21 23 25
8 11 12 9 4 0 2 1 2 3 1 0 3 4 3 4 8 7 3 1 3 3 2 6 8 3 1 1 1 2 3 2 2 3 3 4 4 4 4 3 3 3 3 2 3 3 2 2 1 3 2 5 5 3 4 5 4 5 9 8 9 8 5 4 4 7 9 6 5 5 7 7 4 3 3 5 7 10 14 16 16 16 16 16 19 21 23 25
Wind_Direction
58 56 55 54 53 55 56 54 50 46 42 38 35 32 29 26 22 20 18 17 15 13 12 9 9 11 4 1 9 15 9 2 353 5 8 10 2 342 342 340 341 342 327 323 338 300 209 204 165 80 239 190 208 213 193 200 191 174 152 154 184 167 181 196 172 150 109 91 46 52 71 100 86 72 85 71 64 69 68 64 70 79 77 78 89 102 110 117
60 58 56 54 54 56 57 53 47 42 37 32 29 26 25 26 23 20 17 17 16 15 17 17 16 14 6 359 359 1 342 318 325 358 0 355 353 342 336 338 342 338 325 325 338 326 317 309 341 11 9 173 212 203 189 201 192 180 126 149 191 146 159 135 127 113 103 124 91 67 61 71 64 71 94 80 46 62 63 51 65 68 70 78 82 88 93 102
59 57 56 56 55 57 56 53 47 42 37 31 27 23 22 24 23 20 15 15 15 17 21 23 20 15 12 358 346 339 331 302 294 344 348 341 344 343 334 335 340 336 325 317 313 315 325 326 329 342 347 324 221 197 187 190 188 205 139 113 215 174 84 85 96 100 113 114 91 76 71 63 59 81 96 94 60 52 51 38 57 57 63 74 76 84 90 93
60 58 58 57 57 59 59 56 51 46 41 35 30 25 23 24 23 18 13 11 11 16 22 25 25 21 17 2 351 333 323 309 309 337 340 336 339 340 333 334 341 338 316 290 287 289 307 317 318 316 323 317 227 196 202 194 178 195 156 135 209 185 85 91 101 102 108 102 92 84 77 66 62 70 87 93 73 43 41 46 61 65 70 75 76 81 87 90
63 60 59 60 62 63 62 59 54 50 44 39 34 28 26 24 21 17 12 7 5 12 16 26 31 26 17 6 2 345 343 337 328 338 338 337 337 336 333 336 351 341 315 284 269 271 289 302 311 308 270 283 219 176 220 212 189 95 173 173 175 156 102 104 106 104 103 94 88 77 74 82 75 64 67 80 77 53 52 60 76 80 80 80 79 82 85 85
65 61 62 65 68 68 66 62 56 52 46 41 36 31 26 20 16 13 10 5 0 1 8 19 21 23 14 4 3 359 22 3 332 342 340 337 334 334 335 335 347 327 318 284 261 270 282 296 317 323 224 257 148 161 243 224 199 130 196 192 162 128 118 115 107 104 98 87 83 83 85 92 83 66 64 72 73 78 72 75 84 84 85 87 86 84 81 78
68 64 66 70 73 73 70 65 58 53 48 44 39 34 28 20 11 2 2 360 356 349 357 9 2 10 8 3 8 10 10 347 341 345 337 333 331 330 334 334 316 292 301 272 257 274 289 308 326 353 346 297 154 214 256 254 208 160 198 212 171 120 124 118 107 101 94 89 89 90 85 80 83 78 68 70 68 79 79 74 81 86 90 92 88 83 80 77
69 67 68 73 78 78 74 66 58 52 48 43 37 33 27 21 13 358 353 353 355 351 338 2 358 359 5 6 10 10 357 346 342 343 334 329 330 333 333 336 325 294 296 281 259 273 302 326 354 21 26 282 113 230 240 264 178 160 215 213 129 111 127 119 107 101 96 97 92 84 76 71 81 80 65 64 66 75 84 76 73 83 90 88 84 81 81 80
69 67 68 74 79 80 75 63 52 46 41 36 30 25 20 16 11 1 352 349 356 354 337 3 6 1 4 6 8 10 352 347 341 336 333 324 321 333 320 306 317 300 289 284 263 264 299 320 350 21 17 299 332 326 276 130 164 188 186 116 89 101 124 117 103 101 101 103 93 81 63 60 75 79 55 47 64 68 78 77 69 76 81 78 77 77 79 79
65 64 66 70 74 78 67 48 36 29 27 27 22 18 13 9 5 360 354 352 359 356 339 10 22 15 8 7 11 14 349 346 344 335 329 323 313 309 298 258 256 275 261 274 257 248 279 263 256 330 338 333 331 304 292 159 186 168 121 101 99 102 113 111 104 101 98 96 93 86 54 47 60 83 58 35 65 68 70 74 69 69 72 72 73 74 75 75
52 51 54 55 58 57 32 14 7 5 10 17 18 16 12 7 3 1 2 4 8 360 339 75 43 30 21 15 12 2 354 351 349 341 333 331 326 312 303 261 240 250 237 268 254 243 262 243 237 263 314 20 348 274 216 218 163 126 110 98 101 101 100 104 110 107 99 92 93 90 65 43 50 67 67 53 66 72 71 71 71 68 68 71 72 72 72 71
37 31 28 27 21 7 352 343 346 351 360 10 15 17 13 9 6 11 21 21 22 8 350 108 51 29 26 23 14 6 4 5 2 350 340 340 344 328 305 277 257 260 253 262 244 245 238 216 224 242 250 337 326 185 198 292 122 123 112 103 106 101 93 91 98 107 109 118 99 86 63 30 33 50 56 67 71 75 76 70 69 70 68 70 71 71 70 67
29 24 16 11 1 351 343 337 340 350 2 8 12 18 18 15 16 31 40 35 31 17 23 120 64 29 25 13 15 17 14 17 18 7 357 353 357 344 314 299 283 265 257 254 249 231 185 190 224 250 270 253 249 270 333 2 133 127 113 116 120 101 80 54 50 76 93 145 192 86 74 36 20 39 45 67 85 76 76 70 66 70 69 69 68 69 66 65
25 23 14 9 2 355 350 346 349 356 6 12 15 23 26 25 28 42 48 44 39 30 50 83 37 4 16 13 16 19 19 23 25 16 6 358 1 1 345 334 312 263 251 250 237 196 168 188 234 254 264 245 263 313 341 134 137 127 114 117 115 106 89 35 51 83 58 53 110 100 92 90 40 38 53 70 87 80 78 73 69 70 69 69 68 69 68 67
23 20 13 10 3 359 357 354 356 359 9 18 25 44 39 36 38 41 46 50 46 41 64 86 20 326 6 12 11 20 26 25 23 19 10 357 3 23 44 27 12 354 264 226 185 187 181 194 225 250 266 257 279 320 28 106 129 131 128 121 90 109 99 49 37 80 87 85 102 100 84 100 82 53 63 68 74 81 80 75 72 71 69 69 67 68 69 71
20 16 11 7 1 1 1 358 359 360 7 23 54 76 51 40 40 42 42 48 50 46 49 51 2 330 19 7 7 22 25 20 18 19 14 355 339 7 356 345 27 21 350 170 165 177 185 188 184 85 4 1 53 96 108 118 128 123 119 125 124 117 113 72 23 44 94 77 84 101 112 110 88 71 69 69 70 78 81 76 73 73 70 70 68 66 67 68
16 13 9 5 2 1 1 1 4 4 9 38 91 98 59 39 39 41 40 43 51 47 44 39 22 210 29 14 12 11 7 12 18 18 17 1 299 300 313 317 354 356 52 159 166 170 168 165 145 90 21 28 60 120 144 148 148 115 101 101 107 105 108 96 42 48 89 85 73 93 103 100 88 79 68 71 74 77 81 79 74 73 71 71 69 67 65 63
14 12 9 6 4 3 6 6 8 12 24 69 104 100 62 40 36 39 38 39 42 42 39 30 30 107 0 6 3 355 357 14 20 19 24 22 341 331 338 346 356 2 141 148 152 151 143 124 104 90 8 16 15 110 152 160 141 131 123 116 102 95 92 93 94 88 89 87 85 88 94 98 89 73 64 67 81 83 83 82 77 75 71 71 69 67 65 62
14 13 11 8 7 9 13 12 13 22 48 95 101 83 52 25 26 37 37 38 39 41 33 15 25 60 330 352 356 357 10 23 23 25 34 40 32 23 25 11 13 66 139 141 117 155 140 75 65 63 342 333 328 19 158 161 122 120 119 114 109 98 92 100 112 114 97 87 82 90 97 101 92 74 69 66 76 82 80 79 77 74 71 69 67 66 65 64
16 15 13 10 10 12 19 20 18 30 63 85 78 85 35 6 346 24 31 40 41 39 34 20 22 24 359 356 3 10 25 32 29 30 32 34 38 39 38 34 49 62 73 115 127 186 116 78 65 38 307 290 281 272 143 129 112 110 112 107 103 99 101 110 115 117 101 90 75 95 95 92 91 83 77 70 69 71 71 73 71 69 69 66 66 65 65 65
19 17 14 11 10 11 21 26 22 30 45 46 52 83 65 31 43 354 9 39 40 32 29 25 24 21 13 7 7 11 23 31 28 28 27 26 40 46 36 38 58 47 1 301 117 68 67 69 1 330 301 273 264 202 112 120 112 107 109 107 103 103 105 104 104 116 101 97 96 101 92 83 86 86 85 78 69 64 62 68 67 65 66 62 63 63 63 66
18 16 14 10 8 11 20 29 30 31 36 36 50 72 73 64 73 23 355 37 33 27 24 24 25 21 20 19 14 17 25 25 18 20 23 25 39 44 33 40 59 49 6 352 82 49 45 33 335 319 294 251 174 107 107 112 110 111 112 107 105 108 108 95 92 90 93 100 115 102 91 84 84 83 78 69 67 67 64 67 67 65 64 60 60 60 62 65
14 12 14 10 7 11 18 27 33 36 43 49 52 56 57 48 46 52 39 25 26 23 20 21 19 15 16 14 13 24 33 28 8 10 15 17 28 30 29 39 54 58 39 38 70 59 44 347 317 309 286 127 108 100 108 104 92 106 121 114 120 125 119 106 97 79 72 103 124 103 89 83 81 74 64 63 68 71 70 71 70 68 66 64 63 62 63 63
10 9 13 12 10 12 18 22 24 35 43 47 52 48 46 36 31 72 76 101 33 17 15 17 15 13 9 2 4 18 29 28 13 8 12 14 17 22 30 24 41 58 47 51 63 61 47 331 318 323 108 111 106 97 103 106 75 51 102 120 124 124 114 111 116 103 87 108 120 97 84 71 68 71 59 62 70 71 72 73 69 67 68 68 68 66 64 64
10 9 13 17 16 16 20 19 17 24 32 35 39 36 40 39 30 55 84 76 41 358 5 11 12 12 9 4 5 3 19 31 19 9 14 21 18 14 21 15 32 54 36 47 54 55 29 340 333 58 99 93 100 94 57 99 102 58 9 120 125 123 118 120 128 121 102 118 137 89 90 62 49 80 78 60 65 66 69 70 69 67 64 63 63 63 63 65
13 11 14 20 22 22 24 20 18 22 25 26 26 23 28 33 35 45 77 76 34 346 357 1 359 8 9 8 8 6 19 21 17 18 25 30 29 40 37 8 20 31 16 53 59 69 5 344 350 74 87 80 88 81 10 67 111 83 351 100 119 120 120 126 128 112 105 128 6 47 107 119 86 103 115 107 85 65 69 71 73 73 66 61 61 60 62 64
17 14 16 21 25 27 28 26 27 32 31 22 18 19 28 37 36 15 17 64 20 342 349 351 353 4 4 10 20 39 169 336 7 26 29 27 33 54 64 16 24 29 344 222 61 49 325 356 18 49 64 74 77 58 338 9 101 92 63 96 105 110 109 111 102 90 113 121 52 30 76 112 139 164 159 133 104 79 68 69 74 79 72 64 63 60 62 63
17 19 20 21 23 27 29 32 34 36 36 28 21 25 41 45 26 357 64 82 352 336 343 344 356 3 4 20 34 49 51 2 6 18 25 33 31 47 59 26 34 34 12 70 79 346 295 13 25 25 53 63 37 352 110 92 92 106 118 92 78 96 99 93 93 94 103 95 62 9 32 87 123 154 176 128 102 114 118 113 103 94 84 74 71 65 64 65
20 21 23 23 24 24 25 28 27 28 35 41 38 42 51 42 11 21 67 91 319 336 346 347 357 356 359 18 30 29 31 27 16 7 26 43 35 38 70 22 27 49 36 65 86 19 299 23 24 22 49 46 8 1 111 101 105 138 124 94 78 89 87 80 85 95 72 66 61 320 3 89 143 199 192 186 134 173 186 176 152 124 105 91 85 78 72 70
23 21 24 25 26 25 23 21 16 12 21 39 56 54 51 41 36 61 43 30 293 337 338 347 352 345 351 7 17 12 19 21 13 17 29 38 37 37 45 16 16 39 54 56 75 64 37 35 33 35 33 12 51 48 69 97 117 144 126 104 98 71 59 69 51 66 73 40 321 305 350 100 132 224 194 212 202 171 167 187 180 155 140 133 119 97 85 79
25 24 22 20 23 23 21 17 11 6 11 16 131 68 52 40 53 85 51 303 303 342 341 349 344 344 353 8 7 357 4 16 11 18 26 27 33 32 26 11 3 12 41 26 26 40 36 40 37 33 34 35 76 62 52 66 87 111 103 94 101 48 22 43 4 28 75 336 276 305 350 97 111 227 207 225 199 159 159 176 187 178 167 164 163 139 110 92
24 25 23 21 23 21 20 13 7 14 35 42 82 108 59 45 36 78 283 308 322 340 340 325 330 340 337 340 12 352 342 10 6 14 27 17 34 37 39 29 356 22 35 358 6 16 28 40 25 19 32 27 24 76 54 36 33 54 55 59 83 53 23 29 357 19 78 247 254 305 338 76 303 250 207 191 182 174 175 174 175 178 175 176 183 176 154 123
23 26 25 25 27 25 25 14 6 24 61 63 64 64 76 76 42 316 284 324 327 315 323 298 314 326 327 348 7 346 335 9 2 6 12 20 50 52 55 37 18 46 55 342 16 20 24 28 16 13 17 11 12 77 52 13 20 39 62 79 96 90 70 40 308 9 355 250 254 303 349 43 302 274 208 187 182 181 180 176 177 184 186 188 190 183 179 167
24 28 28 30 29 25 25 19 14 27 47 74 79 61 64 78 338 324 324 285 263 310 325 317 318 327 357 23 349 335 1 22 4 10 6 22 39 21 19 23 17 24 47 37 36 29 65 30 4 9 347 352 11 50 27 157 53 16 171 110 108 134 122 156 199 161 192 246 303 330 17 159 215 272 228 199 181 174 176 179 184 191 195 194 195 195 201 209
24 25 31 34 27 19 20 19 17 22 64 90 87 63 67 94 247 328 304 261 273 315 310 323 338 351 5 359 333 357 21 5 2 22 23 31 42 9 352 354 9 18 20 42 28 15 76 53 309 313 325 358 9 355 5 79 62 18 58 74 63 158 135 133 167 167 168 161 338 330 270 207 214 297 262 209 187 178 178 183 188 191 193 193 201 211 222 235
21 23 30 32 29 26 19 19 19 11 106 92 75 57 93 166 219 154 270 286 335 310 313 338 5 23 358 335 334 357 6 10 11 18 21 34 38 14 1 318 5 26 28 57 54 355 70 33 298 329 343 26 19 348 34 59 161 95 54 50 218 157 119 111 126 53 79 97 293 288 278 287 312 297 242 205 204 196 187 189 190 192 194 198 209 219 227 237
9 22 27 26 30 29 25 32 35 50 85 81 71 80 146 204 188 173 301 325 300 299 352 16 11 23 358 341 334 342 351 3 14 21 21 22 16 3 356 326 0 24 14 24 102 141 85 163 316 4 339 347 1 357 59 40 40 109 96 185 195 102 89 99 102 16 41 78 274 300 273 273 304 270 209 192 210 215 206 201 197 196 199 205 215 222 229 239
353 15 26 22 21 23 29 34 10 58 74 71 72 104 128 257 200 238 318 333 293 333 43 51 7 42 25 352 332 333 351 1 2 24 27 10 7 4 359 333 339 358 355 1 39 16 71 96 311 3 333 323 354 21 39 15 25 75 123 148 109 102 70 55 95 109 78 130 285 312 303 241 212 219 201 198 209 212 210 207 202 202 203 208 218 224 230 240
346 8 27 19 12 22 32 28 34 91 76 66 72 85 90 276 322 321 343 350 296 19 45 36 1 36 36 38 324 323 355 14 357 21 49 20 1 17 21 356 320 341 349 4 54 292 49 96 307 329 342 316 357 36 30 342 360 35 57 26 43 120 136 83 103 141 130 152 230 314 332 268 225 209 191 200 209 204 201 207 210 208 208 213 222 226 232 240
1 28 26 14 12 25 30 34 63 72 68 63 127 95 270 290 336 345 4 2 3 51 44 16 27 37 10 7 337 324 0 23 2 20 57 7 330 10 19 13 321 329 341 2 55 342 331 86 103 311 343 14 22 28 84 286 326 357 23 12 2 22 69 86 61 71 114 139 174 137 319 266 244 196 188 203 210 200 197 202 210 212 212 218 225 230 237 243
49 54 17 18 24 29 51 63 55 58 64 113 96 90 245 34 358 4 15 21 48 57 83 106 66 69 24 357 353 332 355 19 15 43 56 2 26 49 354 359 342 322 336 2 28 20 12 71 104 328 2 43 286 261 218 210 229 192 68 62 103 28 99 97 45 341 86 118 164 151 229 271 259 188 192 206 207 204 204 204 210 215 216 220 228 234 240 246
60 65 5 17 26 30 66 68 42 45 93 79 69 87 58 46 9 7 13 30 49 39 60 92 81 64 80 340 335 346 21 26 11 31 39 348 44 191 326 352 352 338 359 27 325 344 43 87 81 36 356 226 262 286 317 239 234 159 64 128 131 95 98 114 166 236 79 71 141 126 233 273 262 218 220 226 220 213 210 208 212 218 221 224 231 237 242 249
62 58 15 18 33 45 72 72 25 29 71 82 113 93 61 64 44 13 11 27 23 13 40 52 41 49 49 329 357 17 26 39 34 27 1 303 286 248 329 0 8 8 23 38 309 339 41 76 66 357 313 301 305 320 13 21 44 56 352 33 81 49 93 137 177 168 119 167 155 86 306 268 279 312 274 239 229 220 214 213 216 222 226 228 233 238 243 249
66 54 34 32 48 62 76 107 96 68 98 95 77 62 62 67 41 16 4 16 14 35 58 24 3 19 359 11 64 8 351 54 56 10 358 293 308 321 349 7 19 22 20 3 321 332 1 71 83 52 355 347 347 345 348 352 19 60 316 339 36 59 81 124 160 78 76 203 147 121 240 256 285 336 336 269 225 217 216 217 219 225 230 232 235 241 246 251
72 54 43 43 64 92 94 124 134 132 152 105 80 59 67 56 31 28 37 30 33 56 75 6 359 6 345 17 29 352 357 69 64 353 11 348 304 329 358 8 18 17 9 351 331 340 76 107 107 103 102 95 348 308 277 294 317 342 326 328 17 56 68 186 127 66 2 219 144 157 222 266 301 327 329 306 260 229 224 221 223 228 234 238 242 247 250 253
102 67 42 43 60 81 88 107 119 121 149 135 96 62 77 68 22 47 36 25 31 43 51 41 332 353 26 36 33 356 350 19 50 52 18 329 285 322 349 358 15 12 7 11 8 35 110 80 107 136 155 177 187 219 220 191 149 237 286 303 303 35 67 96 97 120 203 184 217 220 215 289 298 283 268 266 255 242 237 231 230 235 240 245 250 253 256 257
102 73 53 53 59 72 79 94 109 116 149 151 124 136 128 121 198 26 5 9 44 39 45 38 23 53 63 50 62 13 337 355 21 37 3 311 271 309 330 332 12 9 10 21 15 42 110 43 49 145 209 216 201 225 226 126 190 211 224 259 237 205 103 105 147 217 168 124 273 259 203 259 271 246 233 244 239 235 240 238 238 242 247 252 256 257 258 259
108 104 108 115 109 77 70 89 115 113 123 130 123 137 123 116 148 134 59 105 90 47 43 22 7 13 21 106 109 58 346 7 6 350 332 324 309 328 339 336 20 11 15 26 22 57 111 40 5 151 280 266 247 253 232 201 242 225 210 218 213 188 165 171 205 209 165 174 240 238 157 240 259 252 237 241 239 237 239 240 244 250 256 260 262 263 262 261
119 117 102 98 111 111 105 125 126 109 99 98 99 121 138 137 154 174 163 98 21 339 66 90 309 310 310 327 115 112 348 54 11 307 283 325 319 335 351 327 341 5 13 26 22 46 108 243 263 116 307 296 281 250 203 194 255 271 238 224 217 211 203 207 223 207 189 226 248 251 269 271 267 257 253 258 257 252 250 252 255 259 262 264 266 268 268 266
135 132 129 112 98 97 108 123 123 103 72 51 79 123 156 140 154 187 143 88 110 296 11 137 214 245 281 21 92 124 227 181 181 243 215 321 322 328 17 274 288 351 6 19 347 359 52 193 189 106 338 305 301 13 129 165 205 256 261 241 220 221 225 227 234 211 204 247 261 261 273 277 268 246 254 268 268 257 251 254 256 258 263 266 268 271 273 271
157 149 144 126 100 83 119 126 115 100 60 20 126 170 185 175 171 154 100 52 129 175 271 154 165 184 335 41 87 198 231 194 185 224 193 182 290 275 270 306 312 342 353 8 343 347 44 75 4 59 31 296 296 16 0 318 250 260 270 256 223 209 216 222 218 199 194 212 218 190 246 261 252 230 247 262 256 240 241 245 249 254 259 265 269 273 276 274
153 145 147 133 95 81 167 121 42 85 116 192 144 159 181 185 172 148 96 38 127 106 103 153 152 140 16 15 349 221 213 226 277 288 275 257 263 264 276 308 350 357 332 348 359 350 60 89 25 46 41 275 289 341 332 342 356 284 265 239 200 191 208 234 240 219 204 180 151 186 225 242 240 217 236 242 225 227 238 245 252 258 261 267 274 277 278 276